• Join FlightAware (Why Join?)
  • Login
  • US Flag 
12:43AM EDT


 

Airport Tracker/Info


-or-


 

Live Flight TrackerFlight Track Log ✈ N839CA ✈ 13-May-2013 ✈ KROC - KEWR

Flight Track Log - Related Links

Times and Time Zones

All times are in EDT time to prevent confusion due to time zone crossing. See the N839CA flight status page for this flight to view local times or setup timezone preferences in your user account.

Time Position Orientation Groundspeed Altitude Reporting Facility
EDT Latitude Longitude Course Direction KTS MPH feet Rate Location/Type
02:29PM 43.1203 -77.6906 258° West 111 128 1,200  Level Cleveland Center
02:29PM 43.1167 -77.7133 258° West 125 144 1,900 900 Climbing Cleveland Center
02:30PM 43.0825 -77.6808 145° Southeast 221 254 2,700 1,260 Climbing Cleveland Center
02:32PM 43.0631 -77.5794 105° East 219 252 4,900 1,560 Climbing Cleveland Center
02:33PM 43.0489 -77.5119 106° East 212 244 6,500 1,380 Climbing Cleveland Center
02:34PM 43.0261 -77.4364 112° Southeast 197 227 7,700 1,320 Climbing Cleveland Center
02:35PM 42.9931 -77.3728 125° Southeast 197 227 9,200 1,320 Climbing Cleveland Center
02:36PM 42.9639 -77.3006 119° Southeast 204 235 10,400 1,200 Climbing Cleveland Center
02:37PM 42.9306 -77.2286 122° Southeast 215 247 11,600 1,140 Climbing Cleveland Center
02:38PM 42.8950 -77.1539 123° Southeast 221 254 12,700 660 Climbing Cleveland Center
02:39PM 42.8569 -77.0708 122° Southeast 239 275 13,000 60 Climbing Cleveland Center
02:41PM 42.7831 -76.9025 121° Southeast 285 328 13,000  Level New York Center
02:42PM 42.7461 -76.8114 119° Southeast 285 328 13,100  Climbing New York Center
02:43PM 42.7028 -76.7200 123° Southeast 285 328 13,100 -60 Level New York Center
02:44PM 42.6636 -76.6289 120° Southeast 285 328 13,000 -120 Descending New York Center
02:44PM 42.6475 -76.5986 126° Southeast 284 327 13,000 60 Level Boston Center
02:45PM 42.6069 -76.5056 121° Southeast 289 333 13,100  Climbing Boston Center
02:46PM 42.5664 -76.4156 121° Southeast 283 326 13,100  Level Boston Center
02:47PM 42.5236 -76.3225 122° Southeast 283 326 13,100  Level Boston Center
02:48PM 42.4886 -76.2500 123° Southeast 283 326 13,100 -60 Level Boston Center
02:49PM 42.4461 -76.1489 120° Southeast 283 326 13,000 -60 Descending Boston Center
02:50PM 42.4033 -76.0564 122° Southeast 289 333 13,000  Level Boston Center
02:51PM 42.3644 -75.9669 120° Southeast 283 326 13,000  Level Boston Center
02:52PM 42.3175 -75.8658 122° Southeast 293 337 13,000  Level Boston Center
02:53PM 42.2764 -75.7739 121° Southeast 286 329 13,100  Climbing Boston Center
02:54PM 42.2353 -75.6819 121° Southeast 286 329 13,000 -60 Descending Boston Center
02:55PM 42.1939 -75.5928 122° Southeast 286 329 13,000  Level Boston Center
02:56PM 42.1506 -75.5039 123° Southeast 286 329 13,100  Climbing Boston Center
02:57PM 42.1114 -75.4125 120° Southeast 281 323 13,100  Level Boston Center
02:58PM 42.0697 -75.3236 122° Southeast 286 329 13,100 -60 Level Boston Center
02:59PM 42.0347 -75.2325 117° Southeast 280 322 13,000 -60 Descending Boston Center
03:00PM 41.9972 -75.1358 118° Southeast 280 322 13,000  Level Boston Center
03:01PM 41.9619 -75.0450 118° Southeast 275 316 13,100  Climbing Boston Center
03:02PM 41.9306 -74.9600 116° Southeast 275 316 13,100 -480 Level Boston Center
03:03PM 41.8783 -74.8717 128° Southeast 275 316 12,200 -900 Descending Boston Center
03:04PM 41.8253 -74.8083 138° Southeast 277 319 11,300 -1,140 Descending Boston Center
03:05PM 41.7625 -74.7278 136° Southeast 285 328 10,000 -1,260 Descending Boston Center
03:06PM 41.7117 -74.6622 136° Southeast 285 328 8,800 -1,320 Descending Boston Center
03:07PM 41.6506 -74.5822 136° Southeast 285 328 7,400 -1,200 Descending Boston Center
03:08PM 41.5844 -74.5578 165° South 256 295 6,500 -720 Descending Boston Center
03:09PM 41.5111 -74.5719 188° South 251 289 6,000 -300 Descending Boston Center
03:10PM 41.4486 -74.5808 186° South 259 298 6,000  Level Boston Center
03:11PM 41.3500 -74.6167 195° South 254 292 6,100  Climbing New York TRACON
03:12PM 41.2833 -74.6333 191° South 251 289 6,000 -60 Descending New York TRACON
03:13PM 41.2167 -74.6667 201° Southwest 254 292 6,000  Level New York TRACON
03:14PM 41.1500 -74.6833 191° South 249 287 6,100 -60 Climbing New York TRACON
03:15PM 41.1000 -74.6333 143° Southeast 265 305 5,900 -300 Descending New York TRACON
03:16PM 41.1000 -74.5333 90° East 272 313 5,500 -540 Descending New York TRACON
03:17PM 41.0833 -74.4333 102° East 265 305 4,900 -240 Descending New York TRACON
03:18PM 41.0667 -74.3333 102° East 258 297 5,100 -240 Climbing New York TRACON
03:19PM 41.0333 -74.2667 124° Southeast 250 288 4,500 -600 Descending New York TRACON
03:20PM 41.0000 -74.1833 118° Southeast 250 288 4,000 -300 Descending New York TRACON
03:21PM 40.9500 -74.1333 143° Southeast 236 272 4,000 -300 Level New York TRACON
03:22PM 40.8833 -74.1000 159° South 250 288 3,500 -600 Descending New York TRACON
03:23PM 40.8333 -74.0833 166° South 199 229 2,800 -900 Descending New York TRACON
03:24PM 40.7833 -74.1167 207° Southwest 178 205 1,800 -900 Descending New York TRACON
03:25PM 40.7500 -74.1333 201° Southwest 143 165 1,100 -780 Descending New York TRACON
03:26PM 40.7167 -74.1500 201° Southwest 127 146 300 -840 Descending New York TRACON
03:28PM 40.6925 -74.1687 180° South  Level Estimated
03:35PM 40.6925 -74.1687 180° South  Level Estimated